Time,TemperatureF,DewpointF,PressureIn,WindDirection,WindDirectionDegrees,WindSpeedMPH,WindSpeedGustMPH,Humidity,HourlyPrecipIn,Conditions,Clouds,dailyrainin,SoftwareType,DateUTC
2013-06-28 00:08:00,70.1,69.0,29.80,SSE,153,0.0,0.0,97,0.00,,,0.38,weatherlink.com 1.10,2013-06-28 04:08:00,
2013-06-28 00:23:00,69.6,69.0,29.79,SSE,153,0.0,0.0,97,0.00,,,0.38,weatherlink.com 1.10,2013-06-28 04:23:00,
2013-06-28 00:38:00,69.4,69.0,29.79,SSE,153,0.0,0.0,98,0.00,,,0.38,weatherlink.com 1.10,2013-06-28 04:38:00,
2013-06-28 00:53:00,69.2,69.0,29.79,ESE,122,0.0,1.0,98,0.00,,,0.38,weatherlink.com 1.10,2013-06-28 04:53:00,
2013-06-28 01:08:00,69.0,69.0,29.78,SE,136,0.0,1.0,98,0.00,,,0.38,weatherlink.com 1.10,2013-06-28 05:08:00,
2013-06-28 01:23:00,68.7,68.0,29.78,SE,136,0.0,1.0,98,0.00,,,0.38,weatherlink.com 1.10,2013-06-28 05:23:00,
2013-06-28 01:38:00,68.5,68.0,29.78,SE,136,0.0,0.0,98,0.00,,,0.38,weatherlink.com 1.10,2013-06-28 05:38:00,
2013-06-28 01:53:00,68.5,68.0,29.78,SE,136,0.0,1.0,99,0.00,,,0.38,weatherlink.com 1.10,2013-06-28 05:53:00,
2013-06-28 02:08:00,68.3,68.0,29.77,SE,135,0.0,0.0,99,0.00,,,0.38,weatherlink.com 1.10,2013-06-28 06:08:00,
2013-06-28 02:23:00,67.4,67.0,29.77,SE,136,0.0,1.0,98,0.00,,,0.38,weatherlink.com 1.10,2013-06-28 06:23:00,
2013-06-28 02:38:00,67.3,67.0,29.77,SE,136,0.0,0.0,99,0.00,,,0.38,weatherlink.com 1.10,2013-06-28 06:38:00,
2013-06-28 02:53:00,67.3,67.0,29.77,SE,136,0.0,0.0,99,0.00,,,0.38,weatherlink.com 1.10,2013-06-28 06:53:00,
2013-06-28 03:08:00,67.3,67.0,29.77,SE,136,0.0,0.0,99,0.00,,,0.38,weatherlink.com 1.10,2013-06-28 07:08:00,
2013-06-28 03:23:00,67.2,67.0,29.77,SE,136,0.0,1.0,99,0.00,,,0.00,weatherlink.com 1.10,2013-06-28 07:23:00,
2013-06-28 03:53:00,67.2,67.0,29.77,SSW,205,0.0,3.0,99,0.00,,,0.00,weatherlink.com 1.10,2013-06-28 07:53:00,
2013-06-28 04:08:00,66.7,66.0,29.77,SSW,205,0.0,0.0,99,0.00,,,0.00,weatherlink.com 1.10,2013-06-28 08:08:00,
2013-06-28 04:23:00,67.4,67.0,29.77,SE,131,0.0,1.0,100,0.00,,,0.00,weatherlink.com 1.10,2013-06-28 08:23:00,
2013-06-28 04:38:00,67.6,68.0,29.77,SE,131,0.0,1.0,100,0.00,,,0.00,weatherlink.com 1.10,2013-06-28 08:38:00,
2013-06-28 04:53:00,67.5,67.0,29.76,SE,131,0.0,0.0,99,0.00,,,0.00,weatherlink.com 1.10,2013-06-28 08:53:00,
2013-06-28 05:08:00,67.7,68.0,29.77,SE,131,0.0,0.0,100,0.00,,,0.00,weatherlink.com 1.10,2013-06-28 09:08:00,
2013-06-28 05:23:00,67.6,67.0,29.77,SE,131,0.0,0.0,99,0.00,,,0.00,weatherlink.com 1.10,2013-06-28 09:23:00,
2013-06-28 05:38:00,67.5,67.0,29.77,SE,131,1.0,1.0,99,0.00,,,0.00,weatherlink.com 1.10,2013-06-28 09:38:00,
2013-06-28 05:53:00,67.8,68.0,29.77,SSE,158,1.0,1.0,100,0.00,,,0.00,weatherlink.com 1.10,2013-06-28 09:53:00,
2013-06-28 06:08:00,68.1,68.0,29.76,SSE,150,1.0,2.0,100,0.00,,,0.00,weatherlink.com 1.10,2013-06-28 10:08:00,
2013-06-28 06:23:00,68.1,68.0,29.76,SSE,150,0.0,2.0,99,0.00,,,0.00,weatherlink.com 1.10,2013-06-28 10:23:00,
2013-06-28 06:38:00,68.0,68.0,29.75,SE,144,0.0,1.0,99,0.00,,,0.00,weatherlink.com 1.10,2013-06-28 10:38:00,
2013-06-28 06:53:00,67.8,68.0,29.74,SE,144,0.0,1.0,99,0.00,,,0.00,weatherlink.com 1.10,2013-06-28 10:53:00,
2013-06-28 07:08:00,67.8,68.0,29.74,SE,143,0.0,1.0,99,0.01,,,0.01,weatherlink.com 1.10,2013-06-28 11:08:00,
2013-06-28 07:38:00,69.3,69.0,29.73,SE,141,0.0,2.0,98,0.01,,,0.01,weatherlink.com 1.10,2013-06-28 11:38:00,
2013-06-28 07:53:00,70.2,69.0,29.73,SW,217,1.0,3.0,97,0.01,,,0.01,weatherlink.com 1.10,2013-06-28 11:53:00,
2013-06-28 08:08:00,71.4,70.0,29.73,SE,136,0.0,5.0,94,0.00,,,0.01,weatherlink.com 1.10,2013-06-28 12:08:00,
2013-06-28 08:39:00,73.1,70.0,29.72,WSW,241,0.0,9.0,91,0.00,,,0.01,weatherlink.com 1.10,2013-06-28 12:39:00,
2013-06-28 08:54:00,74.0,70.0,29.73,SSE,152,2.0,8.0,86,0.00,,,0.01,weatherlink.com 1.10,2013-06-28 12:54:00,
2013-06-28 09:09:00,74.7,70.0,29.73,NE,53,6.0,7.0,84,0.00,,,0.01,weatherlink.com 1.10,2013-06-28 13:09:00,
2013-06-28 09:24:00,75.5,70.0,29.72,SSE,153,0.0,7.0,83,0.00,,,0.01,weatherlink.com 1.10,2013-06-28 13:24:00,
2013-06-28 09:39:00,76.2,70.0,29.72,SE,141,1.0,11.0,81,0.00,,,0.01,weatherlink.com 1.10,2013-06-28 13:39:00,
2013-06-28 09:54:00,77.4,71.0,29.71,WSW,252,2.0,11.0,80,0.00,,,0.01,weatherlink.com 1.10,2013-06-28 13:54:00,
2013-06-28 10:24:00,78.8,70.0,29.71,NNW,334,1.0,10.0,75,0.00,,,0.01,weatherlink.com 1.10,2013-06-28 14:24:00,
2013-06-28 10:39:00,79.9,72.0,29.71,SSW,201,7.0,10.0,76,0.00,,,0.01,weatherlink.com 1.10,2013-06-28 14:39:00,
2013-06-28 10:54:00,80.1,69.0,29.71,SSE,148,4.0,12.0,69,0.00,,,0.01,weatherlink.com 1.10,2013-06-28 14:54:00,
2013-06-28 11:09:00,80.4,69.0,29.71,SSW,203,3.0,10.0,68,0.00,,,0.01,weatherlink.com 1.10,2013-06-28 15:09:00,
2013-06-28 11:39:00,79.7,69.0,29.71,SW,226,4.0,8.0,70,0.00,,,0.01,weatherlink.com 1.10,2013-06-28 15:39:00,
2013-06-28 11:54:00,80.1,68.0,29.71,ENE,74,4.0,10.0,66,0.00,,,0.01,weatherlink.com 1.10,2013-06-28 15:54:00,
2013-06-28 12:09:00,81.0,70.0,29.71,SE,125,4.0,9.0,69,0.00,,,0.01,weatherlink.com 1.10,2013-06-28 16:09:00,
2013-06-28 12:24:00,81.0,69.0,29.71,WNW,298,1.0,7.0,68,0.00,,,0.01,weatherlink.com 1.10,2013-06-28 16:24:00,
2013-06-28 12:39:00,80.1,70.0,29.71,ENE,74,2.0,6.0,71,0.00,,,0.01,weatherlink.com 1.10,2013-06-28 16:39:00,
2013-06-28 12:54:00,79.4,68.0,29.71,NNE,12,1.0,7.0,69,0.00,,,0.01,weatherlink.com 1.10,2013-06-28 16:54:00,
2013-06-28 13:09:00,79.8,69.0,29.71,WNW,283,2.0,9.0,70,0.00,,,0.01,weatherlink.com 1.10,2013-06-28 17:09:00,
2013-06-28 13:24:00,80.5,69.0,29.70,ESE,104,3.0,11.0,69,0.00,,,0.01,weatherlink.com 1.10,2013-06-28 17:24:00,
2013-06-28 13:39:00,80.6,68.0,29.69,NE,54,2.0,13.0,65,0.00,,,0.01,weatherlink.com 1.10,2013-06-28 17:39:00,
2013-06-28 14:40:00,79.3,68.0,29.68,South,181,3.0,7.0,69,0.00,,,0.01,weatherlink.com 1.10,2013-06-28 18:40:00,
2013-06-28 14:55:00,78.3,68.0,29.68,SSE,163,3.0,10.0,70,0.00,,,0.01,weatherlink.com 1.10,2013-06-28 18:55:00,
2013-06-28 15:09:00,78.2,67.0,29.67,SSE,153,0.0,11.0,68,0.00,,,0.01,weatherlink.com 1.10,2013-06-28 19:09:00,
2013-06-28 15:25:00,78.9,67.0,29.66,South,187,1.0,8.0,68,0.00,,,0.01,weatherlink.com 1.10,2013-06-28 19:25:00,
2013-06-28 15:55:00,79.9,69.0,29.64,South,187,7.0,11.0,69,0.00,,,0.01,weatherlink.com 1.10,2013-06-28 19:55:00,
2013-06-28 17:10:00,79.1,65.0,29.63,SW,219,5.0,12.0,63,0.00,,,0.01,weatherlink.com 1.10,2013-06-28 21:10:00,
2013-06-28 17:40:00,77.4,65.0,29.62,South,181,6.0,7.0,66,0.00,,,0.01,weatherlink.com 1.10,2013-06-28 21:40:00,
2013-06-28 18:10:00,78.4,65.0,29.62,South,174,3.0,9.0,64,0.00,,,0.01,weatherlink.com 1.10,2013-06-28 22:10:00,
2013-06-28 18:25:00,77.5,65.0,29.62,SSW,197,3.0,9.0,65,0.00,,,0.01,weatherlink.com 1.10,2013-06-28 22:25:00,
2013-06-28 18:55:00,77.1,65.0,29.63,SSE,153,9.0,9.0,67,0.00,,,0.01,weatherlink.com 1.10,2013-06-28 22:55:00,
2013-06-28 19:10:00,76.0,65.0,29.63,WSW,252,2.0,10.0,69,0.00,,,0.01,weatherlink.com 1.10,2013-06-28 23:10:00,
2013-06-28 19:25:00,75.0,65.0,29.63,SSE,149,2.0,6.0,71,0.00,,,0.01,weatherlink.com 1.10,2013-06-28 23:25:00,
2013-06-28 19:40:00,74.3,65.0,29.63,SSE,155,2.0,6.0,72,0.00,,,0.01,weatherlink.com 1.10,2013-06-28 23:40:00,
2013-06-28 19:55:00,73.7,65.0,29.63,ESE,122,0.0,6.0,75,0.00,,,0.01,weatherlink.com 1.10,2013-06-28 23:55:00,
2013-06-28 20:10:00,73.2,65.0,29.63,SSE,162,0.0,3.0,75,0.00,,,0.01,weatherlink.com 1.10,2013-06-29 00:10:00,
2013-06-28 20:25:00,72.5,65.0,29.64,SSE,167,0.0,2.0,77,0.00,,,0.01,weatherlink.com 1.10,2013-06-29 00:25:00,
2013-06-28 20:40:00,71.1,65.0,29.64,SSE,166,0.0,1.0,81,0.00,,,0.01,weatherlink.com 1.10,2013-06-29 00:40:00,
2013-06-28 20:55:00,69.8,65.0,29.64,SSE,166,0.0,1.0,84,0.00,,,0.01,weatherlink.com 1.10,2013-06-29 00:55:00,
2013-06-28 21:10:00,68.9,65.0,29.64,SE,142,0.0,1.0,86,0.00,,,0.01,weatherlink.com 1.10,2013-06-29 01:10:00,
2013-06-28 21:25:00,68.0,64.0,29.65,SE,142,0.0,0.0,87,0.00,,,0.01,weatherlink.com 1.10,2013-06-29 01:25:00,
2013-06-28 21:40:00,67.4,64.0,29.66,NE,37,2.0,6.0,89,0.00,,,0.01,weatherlink.com 1.10,2013-06-29 01:40:00,
2013-06-28 21:55:00,68.0,64.0,29.66,ESE,120,0.0,1.0,87,0.00,,,0.01,weatherlink.com 1.10,2013-06-29 01:55:00,
2013-06-28 22:10:00,67.0,64.0,29.66,ESE,120,0.0,0.0,89,0.00,,,0.01,weatherlink.com 1.10,2013-06-29 02:10:00,
2013-06-28 22:40:00,65.3,63.0,29.66,ESE,120,0.0,1.0,93,0.00,,,0.01,weatherlink.com 1.10,2013-06-29 02:40:00,
2013-06-28 22:55:00,64.8,63.0,29.66,East,79,0.0,1.0,94,0.00,,,0.01,weatherlink.com 1.10,2013-06-29 02:55:00,
2013-06-28 23:25:00,64.1,63.0,29.65,East,81,0.0,1.0,95,0.00,,,0.01,weatherlink.com 1.10,2013-06-29 03:25:00,
2013-06-28 23:40:00,63.9,63.0,29.65,ENE,78,0.0,1.0,96,0.00,,,0.01,weatherlink.com 1.10,2013-06-29 03:40:00,
2013-06-28 23:55:00,63.7,63.0,29.65,ENE,78,0.0,0.0,96,0.00,,,0.01,weatherlink.com 1.10,2013-06-29 03:55:00,